When you browse on this site, cookies collect data to enhance your experience and personalize the content and advertising you see.
Visit our Privacy Policy to learn more. By continuing to use the site, you agree to this use of cookies and data.
  • In Romania
  • List of Countries
  • For 7 days
  • Water Temperature
  • Satellite Maps
  • Weather Map
  • Weather Widgets
  • user-avatar
    Login

    Hourly Weather Aboleshevo

    Today, 23 March, Saturday

    Time Temperature Precipitation Wind Pressure Humidity
    00:00 -2°C° 0.1 mm 5 mps 743 mmHg 85%
    01:00 -2°C° 0.1 mm 6 mps 743 mmHg 86%
    02:00 -2°C° 0.1 mm 6 mps 744 mmHg 86%
    03:00 -2°C° 0.1 mm 6 mps 745 mmHg 87%
    04:00 -2°C° 0.1 mm 6 mps 745 mmHg 88%
    05:00 -1°C° 0.1 mm 5 mps 746 mmHg 89%
    06:00 -1°C° 0 mm 5 mps 747 mmHg 90%
    07:00 -1°C° 0 mm 4 mps 747 mmHg 90%
    08:00 -1°C° 0 mm 4 mps 748 mmHg 91%
    09:00 0°C° 0 mm 3 mps 748 mmHg 90%
    10:00 +1°C° 0 mm 3 mps 749 mmHg 88%
    11:00 +2°C° 0 mm 2 mps 749 mmHg 87%
    12:00 +3°C° 0 mm 2 mps 749 mmHg 85%
    13:00 +4°C° 0 mm 1 mps 749 mmHg 83%
    14:00 +4°C° 0 mm 1 mps 749 mmHg 81%
    15:00 +4°C° 0 mm 1 mps 749 mmHg 82%
    16:00 +2°C° 0 mm 0 mps 748 mmHg 83%
    17:00 +2°C° 0 mm 0 mps 748 mmHg 84%
    18:00 +2°C° 0 mm 1 mps 748 mmHg 86%
    19:00 +1°C° 0 mm 1 mps 748 mmHg 88%
    20:00 -2°C° 0 mm 2 mps 747 mmHg 90%
    21:00 -2°C° 0 mm 2 mps 747 mmHg 90%
    22:00 -2°C° 0 mm 3 mps 746 mmHg 90%
    23:00 -2°C° 0 mm 3 mps 746 mmHg 89%

    Tomorrow, 24 March, Sunday

    Time Temperature Precipitation Wind Pressure Humidity
    00:00 -2°C° 0 mm 4 mps 745 mmHg 88%
    01:00 -2°C° 0 mm 4 mps 744 mmHg 88%
    02:00 -2°C° 0 mm 4 mps 744 mmHg 87%
    03:00 -2°C° 0.4 mm 4 mps 743 mmHg 88%
    04:00 -2°C° 0.4 mm 4 mps 742 mmHg 89%
    05:00 -2°C° 0.4 mm 5 mps 741 mmHg 90%
    06:00 -1°C° 0.1 mm 4 mps 741 mmHg 90%
    07:00 -1°C° 0.1 mm 4 mps 741 mmHg 90%
    08:00 -1°C° 0.1 mm 4 mps 740 mmHg 90%
    09:00 0°C° 0 mm 4 mps 740 mmHg 87%
    10:00 +1°C° 0 mm 4 mps 740 mmHg 84%
    11:00 +3°C° 0 mm 4 mps 740 mmHg 81%
    12:00 +4°C° 0.2 mm 4 mps 740 mmHg 75%
    13:00 +3°C° 0.2 mm 5 mps 740 mmHg 69%
    14:00 +3°C° 0.2 mm 5 mps 739 mmHg 63%
    15:00 +3°C° 0 mm 4 mps 740 mmHg 66%
    16:00 +1°C° 0 mm 4 mps 740 mmHg 69%
    17:00 +2°C° 0 mm 3 mps 740 mmHg 71%
    18:00 0°C° 0 mm 3 mps 740 mmHg 74%
    19:00 -1°C° 0 mm 3 mps 740 mmHg 77%
    20:00 -2°C° 0 mm 2 mps 740 mmHg 80%
    21:00 -2°C° 0 mm 2 mps 740 mmHg 80%
    22:00 -2°C° 0 mm 2 mps 740 mmHg 81%
    23:00 -3°C° 0 mm 2 mps 740 mmHg 82%

    Day after tomorrow, 25 March, Monday

    Time Temperature Precipitation Wind Pressure Humidity
    00:00 -4°C° 0 mm 3 mps 740 mmHg 81%
    01:00 -4°C° 0 mm 3 mps 739 mmHg 80%
    02:00 -2°C° 0 mm 3 mps 739 mmHg 80%
    03:00 -4°C° 0 mm 3 mps 739 mmHg 81%
    04:00 -4°C° 0 mm 3 mps 739 mmHg 81%
    05:00 -4°C° 0 mm 3 mps 738 mmHg 82%
    06:00 -2°C° 0 mm 3 mps 738 mmHg 80%
    07:00 -2°C° 0 mm 3 mps 738 mmHg 77%
    08:00 -1°C° 0 mm 3 mps 738 mmHg 75%
    09:00 0°C° 0 mm 3 mps 738 mmHg 72%
    10:00 +1°C° 0 mm 3 mps 738 mmHg 68%
    11:00 +3°C° 0 mm 3 mps 738 mmHg 65%
    12:00 +3°C° 0.1 mm 3 mps 738 mmHg 63%
    13:00 +4°C° 0.1 mm 3 mps 738 mmHg 61%
    14:00 +4°C° 0.1 mm 3 mps 738 mmHg 59%
    15:00 +3°C° 0 mm 3 mps 738 mmHg 62%
    16:00 +4°C° 0 mm 2 mps 738 mmHg 65%
    17:00 +3°C° 0 mm 2 mps 738 mmHg 69%
    18:00 +2°C° 0 mm 2 mps 738 mmHg 72%
    19:00 +1°C° 0 mm 2 mps 738 mmHg 74%
    20:00 -1°C° 0 mm 2 mps 738 mmHg 77%
    21:00 -1°C° 0.1 mm 2 mps 739 mmHg 79%
    22:00 -1°C° 0.1 mm 2 mps 739 mmHg 80%
    23:00 -1°C° 0.1 mm 2 mps 739 mmHg 82%

    26 March, Tuesday

    Time Temperature Precipitation Wind Pressure Humidity
    00:00 -2°C° 0 mm 2 mps 739 mmHg 82%
    01:00 -2°C° 0 mm 2 mps 739 mmHg 82%
    02:00 -2°C° 0 mm 2 mps 739 mmHg 83%
    03:00 -2°C° 0 mm 2 mps 739 mmHg 84%
    04:00 -2°C° 0 mm 2 mps 739 mmHg 85%
    05:00 -3°C° 0 mm 2 mps 738 mmHg 86%
    06:00 -2°C° 0 mm 2 mps 738 mmHg 83%
    07:00 -1°C° 0 mm 2 mps 738 mmHg 80%
    08:00 +1°C° 0 mm 2 mps 738 mmHg 78%
    09:00 +1°C° 0 mm 3 mps 738 mmHg 75%
    10:00 +2°C° 0 mm 3 mps 738 mmHg 73%
    11:00 +3°C° 0 mm 3 mps 738 mmHg 71%
    12:00 +1°C° 0.5 mm 4 mps 738 mmHg 73%
    13:00 +1°C° 0.5 mm 4 mps 737 mmHg 75%
    14:00 +1°C° 0.5 mm 5 mps 737 mmHg 77%
    15:00 0°C° 0.1 mm 4 mps 737 mmHg 77%
    16:00 -1°C° 0.1 mm 4 mps 737 mmHg 77%
    17:00 -2°C° 0.1 mm 4 mps 737 mmHg 78%
    18:00 -1°C° 0 mm 3 mps 737 mmHg 81%
    19:00 -2°C° 0 mm 3 mps 738 mmHg 84%
    20:00 -3°C° 0 mm 2 mps 738 mmHg 87%
    21:00 -3°C° 0 mm 2 mps 738 mmHg 88%
    22:00 -3°C° 0 mm 2 mps 738 mmHg 89%
    23:00 -4°C° 0 mm 2 mps 738 mmHg 90%

    27 March, Wednesday

    Time Temperature Precipitation Wind Pressure Humidity
    00:00 -4°C° 0 mm 2 mps 738 mmHg 90%
    01:00 -4°C° 0 mm 2 mps 738 mmHg 90%
    02:00 -4°C° 0 mm 2 mps 739 mmHg 91%
    03:00 -5°C° 0 mm 3 mps 739 mmHg 89%
    04:00 -5°C° 0 mm 3 mps 740 mmHg 86%
    05:00 -5°C° 0 mm 3 mps 740 mmHg 84%
    06:00 -5°C° 0 mm 4 mps 741 mmHg 80%
    07:00 -4°C° 0 mm 4 mps 742 mmHg 76%
    08:00 -4°C° 0 mm 5 mps 742 mmHg 71%
    09:00 -2°C° 0 mm 5 mps 743 mmHg 65%
    10:00 -1°C° 0 mm 5 mps 743 mmHg 59%
    11:00 -2°C° 0 mm 6 mps 744 mmHg 52%
    12:00 -1°C° 0 mm 6 mps 744 mmHg 51%
    13:00 -1°C° 0 mm 6 mps 744 mmHg 49%
    14:00 -1°C° 0 mm 6 mps 744 mmHg 48%
    15:00 0°C° 0.1 mm 5 mps 745 mmHg 53%
    16:00 -1°C° 0.1 mm 4 mps 745 mmHg 58%
    17:00 -2°C° 0.1 mm 4 mps 746 mmHg 64%
    18:00 -2°C° 0.1 mm 4 mps 746 mmHg 67%
    19:00 -3°C° 0.1 mm 4 mps 747 mmHg 71%
    20:00 -3°C° 0.1 mm 4 mps 747 mmHg 75%
    21:00 -4°C° 0 mm 4 mps 748 mmHg 74%
    22:00 -5°C° 0 mm 4 mps 748 mmHg 74%
    23:00 -7°C° 0 mm 4 mps 748 mmHg 73%

    28 March, Thursday

    Time Temperature Precipitation Wind Pressure Humidity
    00:00 -7°C° 0 mm 4 mps 749 mmHg 74%
    01:00 -7°C° 0 mm 4 mps 749 mmHg 75%
    02:00 -7°C° 0 mm 4 mps 750 mmHg 76%
    03:00 -7°C° 0 mm 4 mps 750 mmHg 76%
    04:00 -8°C° 0 mm 4 mps 751 mmHg 76%
    05:00 -8°C° 0 mm 4 mps 751 mmHg 76%
    06:00 -7°C° 0 mm 4 mps 752 mmHg 73%
    07:00 -7°C° 0 mm 4 mps 752 mmHg 69%
    08:00 -5°C° 0 mm 4 mps 753 mmHg 66%
    09:00 -4°C° 0 mm 4 mps 753 mmHg 59%
    10:00 -3°C° 0 mm 4 mps 754 mmHg 53%
    11:00 -2°C° 0 mm 4 mps 754 mmHg 46%
    12:00 -1°C° 0 mm 4 mps 754 mmHg 45%
    13:00 -1°C° 0 mm 4 mps 754 mmHg 44%
    14:00 0°C° 0 mm 4 mps 753 mmHg 43%
    15:00 +1°C° 0 mm 3 mps 753 mmHg 47%
    16:00 0°C° 0 mm 3 mps 753 mmHg 52%
    17:00 +1°C° 0 mm 2 mps 753 mmHg 56%
    18:00 0°C° 0 mm 3 mps 753 mmHg 60%
    19:00 0°C° 0 mm 3 mps 753 mmHg 63%
    20:00 -1°C° 0 mm 3 mps 753 mmHg 67%
    21:00 -1°C° 0 mm 3 mps 752 mmHg 69%
    22:00 -1°C° 0 mm 3 mps 752 mmHg 72%
    23:00 -1°C° 0 mm 3 mps 752 mmHg 74%
    Show more